IW4EMA-3 Weather Reports


time (UTC)temp
F
wind
direction
speed
knots
gust
knots
rain 1hr
in
rain 24hr
in
rain mn
in
humidity
%
barometer
mb
20260507202530 61 162 2.6 3.5 0.00 0.00 0.00 84 1013.8
20260507201521 61 154 2.6 3.5 0.00 0.00 0.00 83 1013.8
20260507200530 61 152 2.6 3.5 0.00 0.00 0.00 82 1013.8
20260507195521 61 152 0.9 1.7 0.00 0.00 0.00 81 1013.4
20260507194530 62 142 1.7 2.6 0.00 0.00 0.00 79 1013.4
20260507193537 62 168 2.6 2.6 0.00 0.00 0.00 77 1013.3
20260507192529 63 145 2.6 6.1 0.00 0.00 0.00 74 1013.4
20260507191521 63 147 2.6 5.2 0.00 0.00 0.00 73 1013.1
20260507190528 64 130 3.5 5.2 0.00 0.00 0.00 71 1013.2
20260507185522 64 134 2.6 5.2 0.00 0.00 0.00 69 1013.0
20260507184530 64 138 2.6 5.2 0.00 0.00 0.00 70 1012.7
20260507183541 65 133 4.3 7.0 0.00 0.00 0.00 69 1012.6
20260507182529 66 130 2.6 3.5 0.00 0.00 0.00 68 1012.5
20260507181522 66 153 2.6 2.6 0.00 0.00 0.00 69 1012.6
20260507180529 67 126 2.6 3.5 0.00 0.00 0.00 67 1012.3
20260507175522 68 133 2.6 5.2 0.00 0.00 0.00 65 1012.3
20260507174529 69 142 4.3 7.0 0.00 0.00 0.00 64 1012.1
20260507173522 69 162 1.7 3.5 0.00 0.00 0.00 64 1011.9
20260507172529 70 140 6.1 9.6 0.00 0.00 0.00 61 1011.8
20260507171522 70 139 5.2 9.6 0.00 0.00 0.00 58 1011.8
20260507170529 72 168 4.3 7.8 0.00 0.00 0.00 56 1011.7
20260507165521 72 105 2.6 5.2 0.00 0.00 0.00 49 1011.7
20260507164546 72 140 3.5 5.2 0.00 0.00 0.00 48 1011.6
20260507163541 73 171 5.2 7.0 0.00 0.00 0.00 47 1011.5
20260507162529 73 157 2.6 3.5 0.00 0.00 0.00 45 1011.5
20260507161521 73 200 2.6 5.2 0.00 0.00 0.00 46 1011.5
20260507160529 73 186 0.9 0.9 0.00 0.00 0.00 45 1011.7
20260507155521 74 178 0.9 1.7 0.00 0.00 0.00 46 1011.6
20260507154550 74 198 2.6 2.6 0.00 0.00 0.00 45 1011.6
20260507153521 74 177 4.3 6.1 0.00 0.00 0.00 44 1011.8
20260507152529 74 269 0.9 0.9 0.00 0.00 0.00 42 1011.8
20260507151522 73 94 3.5 5.2 0.00 0.00 0.00 45 1011.7
20260507150530 75 167 0.9 1.7 0.00 0.00 0.00 43 1011.8
20260507145521 75 235 0.9 1.7 0.00 0.00 0.00 43 1011.8
20260507144529 75 218 2.6 5.2 0.00 0.00 0.00 45 1011.9
20260507143522 77 321 0.9 1.7 0.00 0.00 0.00 42 1011.9
20260507142549 77 312 0.9 1.7 0.00 0.00 0.00 42 1011.9
20260507141541 76 264 0.9 2.6 0.00 0.00 0.00 43 1012.0
20260507140529 76 8 2.6 3.5 0.00 0.00 0.00 44 1012.0
20260507135521 75 304 0.9 2.6 0.00 0.00 0.00 46 1011.9
20260507134530 74 161 1.7 2.6 0.00 0.00 0.00 44 1011.9
20260507133541 73 276 0.0 0.9 0.00 0.00 0.00 49 1012.2
20260507132530 74 185 2.6 3.5 0.00 0.00 0.00 45 1012.1
20260507131522 74 211 1.7 3.5 0.00 0.00 0.00 46 1012.2
20260507130529 73 169 2.6 5.2 0.00 0.00 0.00 47 1012.1
20260507125522 73 234 2.6 5.2 0.00 0.00 0.00 45 1012.1
20260507124530 73 235 4.3 6.1 0.00 0.00 0.00 46 1012.2
20260507123521 72 218 1.7 2.6 0.00 0.00 0.00 46 1012.3
20260507122540 72 180 2.6 5.2 0.00 0.00 0.00 48 1012.2
20260507121522 72 253 2.6 5.2 0.00 0.00 0.00 48 1012.1
20260507120530 72 227 3.5 6.1 0.00 0.00 0.00 48 1012.3
20260507115522 73 200 2.6 3.5 0.00 0.00 0.00 47 1012.4
20260507114530 73 241 3.5 6.1 0.00 0.00 0.00 46 1012.5
20260507113522 73 229 1.7 2.6 0.00 0.00 0.00 48 1012.5
20260507112550 72 218 1.7 5.2 0.00 0.00 0.00 46 1012.5
20260507111521 71 223 1.7 2.6 0.00 0.00 0.00 49 1012.8
20260507110529 73 240 0.9 1.7 0.00 0.00 0.00 45 1012.8
20260507105521 72 201 2.6 3.5 0.00 0.00 0.00 49 1012.9
20260507104529 73 334 2.6 5.2 0.00 0.00 0.00 50 1013.0
20260507103522 72 232 1.7 2.6 0.00 0.00 0.00 50 1012.9
20260507102529 73 292 1.7 2.6 0.00 0.00 0.00 50 1013.2
20260507101522 73 256 0.9 1.7 0.00 0.00 0.00 51 1013.1
20260507100540 69 214 1.7 5.2 0.00 0.00 0.00 50 1013.2
20260507095523 70 232 2.6 5.2 0.00 0.00 0.00 49 1013.3
20260507094531 70 238 1.7 2.6 0.00 0.00 0.00 56 1013.3
20260507093522 70 300 0.0 0.9 0.00 0.00 0.00 58 1013.3
20260507092550 68 244 2.6 5.2 0.00 0.00 0.00 62 1013.3
20260507091522 69 218 2.6 3.5 0.00 0.01 0.00 62 1013.2
20260507090530 69 272 0.9 0.9 0.00 0.01 0.00 63 1013.3
20260507085522 68 304 1.7 1.7 0.00 0.01 0.00 64 1013.4
20260507084611 69 254 0.9 2.6 0.00 0.01 0.00 63 1013.2
20260507083522 68 26 0.9 1.7 0.00 0.01 0.00 66 1013.2
20260507082550 69 306 1.7 2.6 0.00 0.02 0.00 65 1013.1
20260507081522 68 335 0.9 1.7 0.00 0.02 0.00 65 1013.0
20260507080550 68 323 1.7 2.6 0.00 0.03 0.00 67 1013.1
20260507075523 67 297 0.9 0.9 0.00 0.03 0.00 66 1013.1
20260507074530 66 322 0.9 2.6 0.00 0.03 0.00 68 1013.1
20260507073522 65 287 0.9 1.7 0.00 0.03 0.00 70 1013.2
20260507072531 64 222 0.9 1.7 0.00 0.03 0.00 72 1012.9
20260507071526 63 196 1.7 2.6 0.00 0.03 0.00 72 1012.9
20260507070610 64 244 0.9 1.7 0.00 0.03 0.00 71 1012.9
20260507065522 63 221 0.9 2.6 0.00 0.04 0.00 71 1012.9
20260507064530 64 269 0.0 0.9 0.00 0.04 0.00 72 1012.6
20260507063522 63 258 0.9 1.7 0.00 0.05 0.00 73 1012.7
20260507062530 62 254 0.0 0.9 0.00 0.06 0.00 79 1012.5
20260507061522 61 206 0.9 0.9 0.00 0.06 0.00 85 1012.5
20260507060530 60 222 0.9 1.7 0.00 0.06 0.00 85 1012.4
20260507055522 60 0.0 0.0 0.00 0.06 0.00 87 1012.4
20260507054531 59 0.0 0.0 0.00 0.06 0.00 88 1012.4
20260507053524 58 0.0 0.0 0.00 0.06 0.00 89 1012.0
20260507050723 53 202 0.9 0.9 0.00 0.11 0.00 94 1011.8
20260507042846 51 0.0 0.0 0.00 0.27 0.00 95 1011.4
20260507041839 51 228 0.9 0.9 0.00 0.28 0.00 95 1011.5
20260507040827 51 0.0 0.0 0.00 0.29 0.00 95 1011.2
20260507035818 51 0.0 0.0 0.00 0.29 0.00 94 1011.3
20260507034826 51 0.0 0.0 0.00 0.29 0.00 94 1011.1
20260507033818 51 0.0 0.0 0.00 0.29 0.00 93 1011.1
20260507032826 51 0.0 0.0 0.00 0.29 0.00 93 1011.1
20260507031838 51 0.0 0.0 0.00 0.30 0.00 93 1011.0
20260507021732 53 0.0 0.0 0.00 0.34 0.00 90 1011.0
20260507020722 54 0.0 0.0 0.00 0.37 0.00 88 1011.2
20260507020258 54 0.0 0.0 0.00 0.39 0.00 88 1011.1
20260507015818 54 0.0 0.0 0.00 0.40 0.00 87 1011.1
20260507015018 54 0.0 0.0 0.00 0.44 0.00 87 1011.0
20260507014638 54 0.0 0.0 0.00 0.46 0.00 87 1010.9
20260507013626 54 193 1.7 1.7 0.00 0.48 0.00 87 1011.0
20260507012618 54 203 0.9 0.9 0.00 0.48 0.00 87 1010.9
20260507011646 55 213 1.7 2.6 0.00 0.49 0.00 86 1010.6
20260507010531 56 235 0.9 0.9 0.00 0.49 0.00 85 1010.6
20260507005439 56 235 0.0 0.9 0.00 0.49 0.00 84 1010.5
20260507004931 56 235 0.0 0.9 0.00 0.49 0.00 84 1010.6
20260507002426 56 235 0.0 0.9 0.00 0.49 0.00 82 1010.7
20260507000427 57 0.0 0.0 0.00 0.49 0.00 79 1010.6
20260506235418 58 221 0.9 0.9 0.00 0.49 0.00 78 1010.8
20260506234427 57 219 1.7 1.7 0.00 0.49 0.00 79 1010.7
20260506233419 57 219 0.9 1.7 0.00 0.49 0.00 79 1010.6
20260506232446 58 238 0.9 0.9 0.00 0.49 0.00 78 1010.7
20260506231419 58 228 0.0 0.9 0.00 0.49 0.00 77 1010.8
20260506230426 58 222 2.6 3.5 0.00 0.49 0.00 77 1010.6
20260506225419 57 219 3.5 5.2 0.00 0.49 0.00 80 1010.6
20260506224426 57 221 2.6 2.6 0.00 0.49 0.00 83 1010.7
20260506223418 57 199 1.7 2.6 0.00 0.49 0.00 83 1010.5
20260506222446 57 200 0.9 1.7 0.00 0.49 0.00 82 1010.6
20260506221419 57 190 0.9 0.9 0.00 0.49 0.00 82 1010.6
20260506220427 58 0.0 0.0 0.00 0.49 0.00 82 1010.8
20260506215439 59 250 0.9 1.7 0.00 0.49 0.49 79 1010.8
20260506214426 59 211 3.5 5.2 0.00 0.49 0.49 80 1010.5
20260506213433 59 219 2.6 2.6 0.00 0.49 0.49 81 1010.6
20260506212427 59 195 3.5 5.2 0.00 0.49 0.49 82 1010.4
20260506211418 59 194 4.3 6.1 0.00 0.49 0.49 83 1010.2
20260506210427 59 196 3.5 5.2 0.00 0.49 0.49 83 1010.2
20260506205419 60 179 3.5 5.2 0.00 0.49 0.49 81 1010.1
20260506204426 60 163 2.6 3.5 0.00 0.49 0.49 81 1010.2
20260506203418 60 160 2.6 3.5 0.00 0.49 0.49 83 1009.9